Date String (YYYY-MM-DD hh:mm:ss) UTC,Instrument flags,Ambient pressure (hPa),Sample flow (lpm),Bypass flow (lpm),Sample temperature (°C),Ambient temperature (°C),ASC tube jacket temperature (°C),LED temperature (°C),Box temperature (°C),Sample RH (%),Span deviation,Mass concentration (μg/m³),Mass concentration (μg/m³),Mass concentration (μg/m³)
DateTimeUTC,F1_M11,P_M11,Q1_M11,Q2_M11,T1_M11,T2_M11,T3_M11,T4_M11,T5_M11,U1_M11,ZSPAN_M11,X0_M11,X2_M11,X1_M11
2022-10-05 12:00:00,,0832.7,5.01,0.00,28.7,27.0,00.0,37.5,30.5,20.3,0000.0,0008.07,0005.56,0005.33
2022-10-05 12:01:00,,0832.8,4.99,0.00,28.7,27.1,00.0,37.5,30.5,20.2,0000.0,0008.07,0005.54,0005.31
2022-10-05 12:02:00,,0832.7,5.02,0.00,28.7,27.1,00.0,37.5,30.5,20.2,0000.0,0008.05,0005.52,0005.30
2022-10-05 12:03:00,,0832.8,5.00,0.00,28.7,27.1,00.0,37.5,30.5,20.2,0000.0,0008.13,0005.54,0005.31
2022-10-05 12:04:00,,0832.8,5.00,0.00,28.7,27.0,00.0,37.5,30.5,20.2,0000.0,0008.22,0005.57,0005.33
2022-10-05 12:05:00,,0832.8,5.00,0.00,28.7,27.0,00.0,37.5,30.5,20.2,0000.0,0008.24,0005.59,0005.34
2022-10-05 12:06:00,,0832.7,4.99,0.00,28.7,27.0,00.0,37.4,30.5,20.3,0000.0,0008.25,0005.61,0005.37
2022-10-05 12:07:00,,0832.8,5.01,0.00,28.7,27.0,00.0,37.4,30.5,20.3,0000.0,0008.41,0005.67,0005.39
2022-10-05 12:08:00,,0832.7,4.99,0.00,28.6,27.0,00.0,37.4,30.5,20.3,0000.0,0008.54,0005.73,0005.41
2022-10-05 12:09:00,,0832.7,5.01,0.00,28.6,27.0,00.0,37.4,30.5,20.3,0000.0,0008.62,0005.77,0005.44
2022-10-05 12:10:00,,0832.8,4.99,0.00,28.6,27.0,00.0,37.4,30.5,20.3,0000.0,0008.69,0005.81,0005.48
2022-10-05 12:11:00,,0832.7,5.00,0.00,28.6,27.0,00.0,37.4,30.5,20.3,0000.0,0008.69,0005.82,0005.50
2022-10-05 12:12:00,,0832.7,5.00,0.00,28.6,27.0,00.0,37.4,30.5,20.2,0000.0,0008.77,0005.87,0005.53
2022-10-05 12:13:00,,0832.7,5.00,0.00,28.6,27.0,00.0,37.4,30.4,20.2,0000.0,0008.73,0005.88,0005.57
2022-10-05 12:14:00,,0832.7,5.01,0.00,28.6,27.0,00.0,37.4,30.4,20.2,0000.0,0008.67,0005.88,0005.58
2022-10-05 12:15:00,,0832.7,4.99,0.00,28.6,26.9,00.0,37.4,30.4,20.1,0000.0,0008.59,0005.86,0005.58
2022-10-05 12:16:00,,0832.7,5.01,0.00,28.6,26.9,00.0,37.4,30.4,20.2,0000.0,0008.52,0005.85,0005.58
2022-10-05 12:17:00,,0832.8,4.99,0.00,28.6,26.9,00.0,37.4,30.4,20.2,0000.0,0008.53,0005.86,0005.58
2022-10-05 12:18:00,,0832.7,5.01,0.00,28.6,26.9,00.0,37.4,30.4,20.1,0000.0,0008.43,0005.83,0005.59
2022-10-05 12:19:00,,0832.8,5.00,0.00,28.6,26.9,00.0,37.4,30.4,20.1,0000.0,0008.37,0005.82,0005.60
2022-10-05 12:20:00,,0832.8,5.00,0.00,28.6,26.9,00.0,37.4,30.4,20.1,0000.0,0008.37,0005.81,0005.59
2022-10-05 12:21:00,,0832.9,5.00,0.00,28.6,26.9,00.0,37.4,30.4,20.0,0000.0,0008.58,0005.78,0005.58
2022-10-05 12:22:00,,0832.8,4.99,0.00,28.6,26.9,00.0,37.3,30.4,20.1,0000.0,0008.69,0005.80,0005.59
2022-10-05 12:23:00,,0832.9,5.00,0.00,28.5,26.9,00.0,37.3,30.4,20.1,0000.0,0008.65,0005.79,0005.59
2022-10-05 12:24:00,,0832.9,4.99,0.00,28.5,26.9,00.0,37.3,30.4,20.2,0000.0,0008.68,0005.80,0005.58
2022-10-05 12:25:00,,0832.8,5.00,0.00,28.5,26.9,00.0,37.3,30.4,20.2,0000.0,0008.87,0005.82,0005.59
2022-10-05 12:26:00,,0832.9,5.01,0.00,28.5,26.9,00.0,37.3,30.4,20.2,0000.0,0008.86,0005.81,0005.59
2022-10-05 12:27:00,,0832.8,4.99,0.00,28.5,26.8,00.0,37.3,30.3,20.3,0000.0,0009.10,0005.86,0005.62
2022-10-05 12:28:00,,0832.8,5.01,0.00,28.5,26.8,00.0,37.3,30.3,20.3,0000.0,0009.12,0005.87,0005.65
2022-10-05 12:29:00,,0832.8,5.00,0.00,28.5,26.8,00.0,37.3,30.3,20.3,0000.0,0009.16,0005.89,0005.67
2022-10-05 12:30:00,,0832.8,4.99,0.00,28.5,26.8,00.0,37.3,30.3,20.3,0000.0,0009.17,0005.91,0005.68
2022-10-05 12:31:00,,0832.8,5.01,0.00,28.5,26.8,00.0,37.3,30.3,20.2,0000.0,0009.13,0005.90,0005.69
2022-10-05 12:32:00,,0832.8,4.98,0.00,28.5,26.8,00.0,37.3,30.3,20.2,0000.0,0009.03,0005.91,0005.70
2022-10-05 12:33:00,,0832.8,5.00,0.00,28.5,26.8,00.0,37.3,30.3,20.3,0000.0,0008.97,0005.90,0005.71
2022-10-05 12:34:00,,0832.9,5.00,0.00,28.5,26.8,00.0,37.3,30.3,20.3,0000.0,0008.94,0005.89,0005.71
2022-10-05 12:35:00,,0832.9,5.00,0.00,28.5,26.8,00.0,37.3,30.3,20.4,0000.0,0008.89,0005.88,0005.72
2022-10-05 12:36:00,,0832.9,5.01,0.00,28.5,26.8,00.0,37.2,30.3,20.4,0000.0,0008.71,0005.87,0005.72
2022-10-05 12:37:00,,0833.0,4.99,0.00,28.4,26.8,00.0,37.2,30.3,20.5,0000.0,0008.72,0005.89,0005.74
2022-10-05 12:38:00,,0832.9,5.01,0.00,28.4,26.8,00.0,37.2,30.3,20.6,0000.0,0008.63,0005.87,0005.74
2022-10-05 12:39:00,,0833.0,5.00,0.00,28.4,26.8,00.0,37.2,30.3,20.6,0000.0,0008.62,0005.86,0005.72
2022-10-05 12:40:00,,0833.0,5.00,0.00,28.4,26.8,00.0,37.2,30.3,20.6,0000.0,0008.56,0005.84,0005.72
2022-10-05 12:41:00,,0833.0,4.99,0.00,28.4,26.8,00.0,37.2,30.3,20.6,0000.0,0008.53,0005.84,0005.72
2022-10-05 12:42:00,,0833.1,5.01,0.00,28.4,26.8,00.0,37.2,30.3,20.6,0000.0,0008.80,0005.86,0005.73
2022-10-05 12:43:00,,0833.0,4.99,0.00,28.4,26.8,00.0,37.2,30.3,20.6,0000.0,0008.91,0005.88,0005.75
2022-10-05 12:44:00,,0833.0,5.00,0.00,28.4,26.8,00.0,37.2,30.3,20.6,0000.0,0008.90,0005.90,0005.76
2022-10-05 12:45:00,,0833.1,5.01,0.00,28.4,26.8,00.0,37.2,30.3,20.5,0000.0,0008.99,0005.92,0005.78
2022-10-05 12:46:00,,0833.1,4.99,0.00,28.4,26.8,00.0,37.2,30.3,20.4,0000.0,0009.10,0005.96,0005.80
2022-10-05 12:47:00,,0833.1,5.01,0.00,28.4,26.8,00.0,37.2,30.3,20.4,0000.0,0009.13,0005.97,0005.80
2022-10-05 12:48:00,,0833.1,4.99,0.00,28.4,26.8,00.0,37.2,30.2,20.4,0000.0,0009.12,0005.98,0005.80
2022-10-05 12:49:00,,0833.1,5.00,0.00,28.4,26.8,00.0,37.2,30.2,20.4,0000.0,0009.05,0005.98,0005.79
2022-10-05 12:50:00,,0833.1,4.99,0.00,28.4,26.7,00.0,37.2,30.2,20.4,0000.0,0009.07,0005.99,0005.79
2022-10-05 12:51:00,,0833.1,5.00,0.00,28.4,26.7,00.0,37.2,30.2,20.4,0000.0,0009.11,0006.01,0005.79
2022-10-05 12:52:00,,0833.1,5.00,0.00,28.4,26.7,00.0,37.2,30.2,20.4,0000.0,0009.12,0006.02,0005.79
2022-10-05 12:53:00,,0833.0,5.01,0.00,28.4,26.7,00.0,37.2,30.2,20.4,0000.0,0008.88,0006.03,0005.80
2022-10-05 12:54:00,,0833.0,5.01,0.00,28.4,26.7,00.0,37.2,30.2,20.4,0000.0,0008.61,0006.01,0005.79
2022-10-05 12:55:00,,0833.1,4.99,0.00,28.4,26.7,00.0,37.1,30.2,20.3,0000.0,0008.64,0006.00,0005.77
2022-10-05 12:56:00,,0833.0,5.01,0.00,28.4,26.7,00.0,37.1,30.2,20.3,0000.0,0008.64,0006.00,0005.76
2022-10-05 12:57:00,,0833.0,5.00,0.00,28.4,26.7,00.0,37.1,30.2,20.4,0000.0,0008.59,0005.97,0005.75
2022-10-05 12:58:00,,0833.0,4.99,0.00,28.3,26.7,00.0,37.1,30.2,20.4,0000.0,0008.59,0005.97,0005.74
2022-10-05 12:59:00,,0833.0,5.01,0.00,28.4,26.7,00.0,37.1,30.2,20.3,0000.0,0008.67,0005.98,0005.73
